Home   Weather   MD of Lunenburg   Past weeks
Flag for Canada

Past Weather in MD of Lunenburg, Nova Scotia, Canada — Yesterday and Last 2 Weeks

Now
43 °F

Passing clouds.


Feels Like: 38 °F
Forecast: 62 / 38 °F
Wind: 8 mph from North

Location: Shearwater

Current Time: Sep 19, 2019 at 9:48:29 am

Latest Report: Sep 19, 2019 at 8:00 am


Visibility: 15 mi

Pressure: 30.30 "Hg

Humidity: 93%

Dew Point: 41 °F

Location of MD of LunenburgLocation

Past Weather in MD of Lunenburg — Graph

°F

MD of Lunenburg Temperature Yesterday

Maximum temperature yesterday: 57 °F (at 12:00 pm)
Minimum temperature yesterday: 46 °F (at 12:00 am)
Average temperature yesterday: 52 °F

High & Low Weather Summary for the Past Weeks

 TemperatureHumidityPressure
High73 °F (Sep 5, 5:00 pm)100% (Sep 10, 6:00 am)30.52 "Hg (Sep 10, 6:00 am)
Low43 °F (Sep 19, 6:00 am)21% (Sep 9, 11:00 am)29.82 "Hg (Sep 16, 3:00 pm)
Average60 °F75%30.13 "Hg
* Reported Sep 4 10:00 am — Sep 19 8:00 am, MD of Lunenburg. Weather by CustomWeather, © 2019

Note: Actual official high and low records may vary slightly from our data, if they occured in-between our weather recording intervals... More about our weather records

Advertising

MD of Lunenburg Weather History for the Previous 24 Hours

Scroll right to see more
 ConditionsComfort  
Time TempWeatherWind HumidityBarometerVisibility
8:00 am
Thu, Sep 19
43 °FPassing clouds.8 mph93%30.30 "Hg15 mi
7:00 am45 °FPassing clouds.9 mph87%30.28 "Hg15 mi
6:00 am43 °FPassing clouds.8 mph93%30.28 "Hg15 mi
12:00 am45 °FClear.10 mph87%30.30 "Hg15 mi
11:00 pm
Wed, Sep 18
46 °FClear.9 mph82%30.31 "Hg15 mi
10:00 pm46 °FPassing clouds.7 mph82%30.30 "Hg15 mi
9:00 pm50 °FPassing clouds.8 mph71%30.28 "Hg15 mi
8:00 pm52 °FPassing clouds.14 mph67%30.27 "Hg15 mi
7:00 pm54 °FPassing clouds.12 mph63%30.25 "Hg15 mi
6:00 pm55 °FScattered clouds.18 mph55%30.24 "Hg15 mi
5:00 pm57 °FPartly sunny.15 mph55%30.22 "Hg15 mi
4:00 pm57 °FPartly sunny.13 mph55%30.22 "Hg15 mi
3:00 pm57 °FPartly sunny.14 mph55%30.21 "Hg15 mi
2:00 pm57 °FPartly sunny.14 mph59%30.21 "Hg15 mi
1:00 pm57 °FPartly sunny.14 mph59%30.21 "Hg15 mi
12:00 pm57 °FPartly sunny.15 mph59%30.21 "Hg15 mi
11:00 am55 °FScattered clouds.18 mph59%30.21 "Hg15 mi
10:00 am54 °FPassing clouds.14 mph63%30.22 "Hg15 mi
9:00 am50 °FPartly sunny.10 mph76%30.21 "Hg15 mi
Weather by CustomWeather, © 2019

See weather overview